Regional Weather Roundup
Issued by NWS

Home | Current Version | Previous Version | Text Only | Print | Product List | Glossary Off
Versions: 1 2 3 4 5 6 7 8 9 10 11 12 13 14 15 16 17 18 19 20 21 22 23 24 25 26 27 28 29 30 31 32 33 34 35 36 37 38 39 40 41 42 43 44 45 46 47 48 49 50

000
ASUS44 KMEG 070610
RWRTN
TENNESSEE HOURLY STATE WEATHER ROUNDUP
NATIONAL WEATHER SERVICE MEMPHIS TN
100 AM CDT TUE JUL 07 2015

TNZ002-004-019-021-049-052-054-088>092-070700-
WEST TENNESSEE

CITY           SKY/WX    TMP DP  RH WIND       PRES   REMARKS
MEMPHIS INTL   MOCLDY    79  73  82 S13       30.04S
NWS MEMPHIS      N/A     78 N/A N/A MISG        N/A
JACKSON        CLOUDY    76  67  73 W9        30.07R
DYERSBURG        N/A    N/A N/A N/A MISG        N/A
PARIS          PTCLDY    73  72  94 S6        30.04F
LEXINGTON      PTCLDY    73  72  94 S5        30.06S
$$

TNZ008-025-027-028-033-062-065-066-070700-
NORTH MIDDLE TENNESSEE

CITY           SKY/WX    TMP DP  RH WIND       PRES   REMARKS
NASHVILLE      CLEAR     75  73  93 S6        30.07S
CLARKSVILLE    CLEAR     76  73  91 SW8       30.04S
SMYRNA         CLEAR     74  71  90 S6        30.09R
COOKEVILLE     CLEAR     72  72 100 CALM      30.10F
CROSSVILLE     CLEAR     70  66  87 CALM      30.15F
$$

TNZ061-075-076-078-094-096-097-070700-
SOUTH MIDDLE TENNESSEE

CITY           SKY/WX    TMP DP  RH WIND       PRES   REMARKS
FAYETTEVILLE   CLEAR     72  72 100 S5        30.12S
TULLAHOMA      CLEAR     72  70  94 S5        30.13S
WINCHESTER     CLEAR     72  70  94 CALM      30.12F
MCMINNVILLE    CLEAR     73  73 100 S3        30.11S
COLUMBIA       CLEAR     75  73  94 SW9       30.07S
SHELBYVILLE    CLEAR     73  72  94 S3          N/A
$$

TNZ017-018-042-046-047-070700-
NORTHEAST TENNESSEE

CITY           SKY/WX    TMP DP  RH WIND       PRES   REMARKS
TRI CITIES     PTCLDY    66  65  96 CALM      30.16R FOG
ELIZABETHTON   CLEAR     64  63  94 NE3       30.17S
$$

TNZ012-013-036-069-073-074-070700-
CENTRAL EAST TENNESSEE

CITY           SKY/WX    TMP DP  RH WIND       PRES   REMARKS
KNOXVILLE      PTCLDY    73  68  84 SW7       30.11F
OAK RIDGE      CLEAR     71  69  93 CALM      30.12F
GATLINBURG     CLEAR     66  64  94 CALM      30.12F
MORRISTOWN     CLEAR     70  68  94 CALM      30.14F
$$

TNZ083-085-099-070700-
SOUTHEAST TENNESSEE

CITY           SKY/WX    TMP DP  RH WIND       PRES   REMARKS
CHATTANOOGA    CLEAR     74  70  87 S3        30.12S
$$

SKY/WX REPORTED AS FAIR MEANS FEW OR NO CLOUDS BELOW
12 THOUSAND FEET.




USA.gov is the U.S. government's official web portal to all federal, state and local government web resources and services.